Temp
21 19 18 20 23 22 22 22 22 22 22 22 20 22 22 22 21 21 21 21 21 20 21 20 20 21 21 21 21 20 20 20 20 19 18 18 18 18 17 17 17 17 17 16
20 18 20 22 22 23 23 22 21 22 21 23 20 21 21 22 23 23 22 21 21 21 18 19 19 20 21 21 21 20 21 20 20 19 19 18 18 18 18 17 17 17 17 16
19 21 22 21 21 21 22 21 20 21 20 22 20 20 21 22 23 22 21 20 19 21 17 17 18 18 20 21 21 21 20 20 19 19 19 18 18 18 17 17 17 17 16 16
19 19 22 20 21 22 21 22 21 20 20 20 21 19 20 21 20 20 19 18 18 19 18 17 17 18 20 21 21 21 20 20 20 19 19 19 18 17 17 17 17 17 16 16
19 19 19 20 22 21 22 22 21 19 19 19 21 19 19 19 19 19 19 19 18 19 18 17 17 18 20 21 21 21 20 20 20 19 19 19 18 18 17 17 16 16 16 15
20 19 20 21 20 21 20 19 17 17 18 19 20 19 19 18 18 17 18 18 17 16 17 16 18 19 19 20 20 20 19 19 19 19 18 18 18 18 17 16 16 16 15 14
18 19 18 18 19 19 18 18 17 18 18 18 19 19 20 19 17 17 16 17 15 14 13 14 14 16 17 17 18 18 18 18 18 18 18 17 17 17 16 15 14 14 14 13
18 16 19 20 19 19 18 18 18 20 17 19 19 18 19 18 16 16 15 15 14 13 12 12 13 14 16 17 17 18 17 17 17 17 16 16 16 15 14 14 13 13 13 12
18 19 21 20 20 20 21 20 20 19 19 18 18 18 18 16 16 15 14 14 13 13 12 12 13 14 15 16 16 17 16 16 16 15 15 14 14 14 13 13 12 12 11 11
20 19 20 21 21 20 21 20 20 18 20 20 18 17 17 15 15 14 14 13 13 12 12 11 12 14 15 16 16 16 16 16 15 15 14 14 13 12 12 11 11 11 10 10
19 18 19 20 20 19 20 19 19 18 17 18 17 17 16 16 15 14 13 13 13 12 12 12 13 14 15 15 16 16 15 15 15 15 14 13 13 12 11 11 10 10 10 9
19 17 18 18 19 20 20 20 18 17 20 16 14 16 17 15 16 15 14 14 13 13 12 12 12 13 14 14 14 14 14 14 13 13 12 12 11 11 10 10 10 9 9 8
18 17 17 19 19 19 20 20 19 16 14 17 15 17 16 14 14 15 13 13 13 12 12 10 10 11 12 13 13 13 13 13 13 12 11 11 10 10 10 9 9 8 8 7
16 17 17 17 19 18 19 20 19 17 15 16 16 18 18 15 15 14 13 13 13 13 11 10 9 10 11 12 12 12 12 11 11 11 10 10 10 9 9 8 8 8 7 6
17 18 19 19 20 20 20 20 18 19 18 18 18 17 17 15 14 15 14 12 12 12 11 10 9 9 10 11 11 11 11 11 10 10 9 9 9 9 8 8 7 6 6 6
15 17 19 20 20 20 20 20 19 19 19 19 18 19 17 16 14 13 13 13 12 11 11 10 9 10 10 11 11 11 10 10 9 9 9 8 8 8 8 7 6 6 5 5
16 16 15 17 18 18 18 17 18 19 19 18 17 17 17 16 15 14 12 12 11 10 10 9 9 9 10 11 11 10 10 9 9 9 8 8 8 7 7 6 5 5 5 5
16 15 13 12 16 17 19 18 18 18 19 16 16 15 16 15 11 10 12 10 9 9 8 8 9 9 10 10 10 10 9 9 9 8 8 8 7 7 6 5 5 5 5 4
14 14 13 13 13 16 18 18 18 18 18 16 15 14 13 11 11 10 10 9 8 8 8 9 10 9 10 10 9 9 9 9 8 8 8 8 7 6 5 5 5 5 4 3
14 13 14 12 13 14 18 17 17 17 15 16 15 13 12 12 11 9 9 8 8 9 9 10 10 10 9 9 9 9 8 8 8 8 8 7 6 5 5 5 4 4 2 2
14 12 12 12 11 13 14 16 16 16 14 15 14 13 11 12 10 8 8 8 9 10 10 10 10 9 9 9 9 9 8 8 8 8 7 6 5 5 5 4 3 2 2 2
14 11 10 10 12 14 14 16 16 14 14 15 14 12 11 8 8 8 8 7 8 9 10 10 10 9 9 9 8 8 8 8 8 7 6 6 5 4 4 3 3 2 2 1
14 14 12 12 12 13 12 15 14 12 13 14 12 10 9 8 8 8 7 7 9 9 10 9 9 9 9 9 8 7 8 7 7 6 6 5 4 4 3 3 2 1 1 -0
15 12 13 13 15 13 14 14 13 13 13 12 10 8 8 8 8 8 7 7 8 9 9 9 9 8 8 8 8 7 7 7 6 6 5 4 3 3 2 2 1 0 0 -0
13 13 13 11 12 12 13 12 12 12 10 9 9 9 8 7 7 7 7 7 8 9 9 9 8 7 8 7 7 7 7 6 6 5 4 3 3 2 1 1 0 -0 -0 0
11 13 12 14 13 13 13 12 10 10 10 9 8 8 8 8 7 8 7 8 9 8 8 8 8 8 7 7 7 7 6 6 5 4 3 2 2 1 1 0 -0 0 0 0
Height
756 771 777 768 760 767 771 777 783 779 775 780 789 785 780 776 779 778 776 777 777 777 776 780 781 785 789 793 797 802 806 809 811 815 820 823 825 827 829 831 832 833 833 833
764 774 762 758 758 762 768 778 785 781 777 777 789 787 778 772 771 771 773 777 778 777 778 783 783 784 789 792 796 799 803 807 811 814 818 822 825 827 828 829 830 831 831 831
769 759 752 761 764 771 771 780 786 784 785 780 789 795 783 772 770 771 772 774 776 776 778 781 784 786 788 791 795 799 802 806 810 814 817 821 824 825 826 828 828 829 829 829
766 757 757 766 767 766 778 765 775 783 791 804 785 815 788 779 779 779 780 779 778 776 776 779 783 784 786 791 796 799 801 805 810 812 816 818 820 822 824 824 825 826 827 827
768 763 766 767 761 762 767 761 770 782 793 797 794 809 792 785 788 785 781 779 779 775 774 778 782 784 788 792 796 799 802 805 808 810 813 815 817 819 820 821 822 822 822 823
761 758 760 758 755 757 762 773 787 793 798 812 794 801 799 794 787 786 782 779 778 775 774 778 783 787 790 794 796 799 802 805 807 810 812 813 814 816 817 818 819 819 820 820
767 766 762 762 766 764 771 780 813 818 817 815 792 801 786 776 781 781 783 782 782 781 779 780 784 788 791 794 798 800 803 805 807 809 811 812 814 814 815 816 816 817 818 818
780 799 767 758 764 769 777 778 799 806 818 802 791 801 786 778 779 781 783 785 786 786 784 786 789 791 794 796 799 801 803 805 807 808 809 810 811 812 814 815 815 816 816 816
784 779 759 759 757 759 767 778 767 787 790 803 797 791 786 785 786 787 789 789 791 792 792 792 792 794 797 799 801 802 803 805 807 808 809 810 811 812 813 813 814 814 814 814
768 775 763 758 755 757 759 760 779 790 798 802 800 799 794 792 791 791 792 793 794 795 796 797 797 798 800 801 803 804 805 806 808 809 810 810 811 812 812 813 813 813 813 812
765 772 774 761 766 772 768 773 774 780 795 804 810 800 778 780 782 788 790 792 794 796 798 798 798 800 801 802 803 804 805 807 808 809 810 811 811 811 811 811 810 810 809 808
765 776 782 774 764 760 763 766 774 794 786 800 811 801 769 773 775 781 788 790 793 795 796 796 798 799 800 802 803 804 806 807 808 808 809 809 810 810 810 809 808 806 805 804
771 778 790 779 773 764 765 762 768 782 794 793 809 795 773 776 781 782 787 790 792 793 795 797 798 800 801 803 804 805 806 807 807 807 807 807 807 807 807 806 805 804 803 802
771 778 782 792 776 773 771 765 765 777 798 792 794 781 774 780 781 784 786 787 788 789 793 797 799 800 801 802 803 804 805 806 806 806 807 807 806 806 805 804 802 801 799 797
774 779 772 769 764 763 764 764 769 772 776 783 776 782 775 776 776 775 778 786 789 791 793 796 798 800 802 802 802 803 804 805 805 806 805 805 804 804 801 800 800 798 795 793
780 781 772 770 764 764 766 763 764 767 767 769 771 772 766 768 775 779 782 784 786 790 793 796 799 801 801 801 802 803 803 804 804 804 804 803 802 801 800 798 796 793 790 788
780 782 787 783 773 771 777 767 765 763 761 765 778 770 765 769 772 775 778 781 785 790 795 798 798 800 801 802 802 802 801 802 802 802 801 800 799 798 797 794 792 788 785 782
779 782 791 802 782 789 763 759 759 762 758 762 766 768 768 770 779 780 776 781 788 793 796 798 800 801 801 801 800 799 800 800 800 799 797 796 795 793 791 790 786 783 780 776
778 784 795 802 800 779 762 760 762 761 762 762 765 769 772 779 780 785 783 784 789 792 796 798 799 800 799 799 799 799 799 799 797 796 794 793 792 790 787 784 781 778 774 772
780 784 789 800 802 800 765 760 757 760 781 757 761 767 773 777 788 789 787 788 791 794 796 797 797 798 798 797 797 797 796 796 794 793 791 791 789 786 783 779 777 774 771 768
788 796 797 803 810 785 765 759 759 779 779 755 759 764 773 774 778 780 785 790 791 793 795 795 795 796 797 797 796 795 794 792 790 788 787 786 785 782 779 776 773 771 767 763
782 802 805 808 802 792 761 762 768 765 758 757 760 763 771 779 780 783 787 790 792 792 793 794 795 796 795 794 793 792 791 789 787 785 784 783 782 779 775 772 770 767 763 758
782 773 784 787 781 759 758 754 754 757 759 759 763 768 772 777 781 785 789 790 791 792 793 794 795 794 793 793 791 789 788 786 784 782 781 780 778 775 772 770 767 763 759 755
762 767 771 772 755 757 754 753 754 755 756 760 763 768 772 777 782 785 788 789 791 792 793 793 793 792 791 790 789 787 785 784 781 780 778 777 775 772 770 767 764 759 755 752
764 765 766 770 759 756 751 752 753 755 758 761 765 768 772 776 783 785 787 789 790 791 791 792 791 790 789 788 786 785 783 781 779 778 776 774 771 769 767 764 760 756 753 749
760 757 765 757 747 747 748 747 750 755 759 762 765 772 775 777 781 783 786 788 790 790 789 789 788 788 787 786 783 782 781 779 777 775 773 771 769 767 764 760 756 753 750 746
Wind_Speed
4 3 7 5 8 7 5 6 6 2 5 4 8 4 7 7 5 7 6 7 6 9 3 16 27 35 35 33 33 33 29 23 22 22 20 17 16 16 14 14 12 11 10 10
2 5 6 6 4 8 4 5 4 1 4 3 6 8 10 5 5 6 8 6 4 4 7 12 24 33 36 35 31 28 25 25 22 20 20 18 16 15 15 14 15 14 13 13
4 3 3 4 5 7 6 5 5 5 3 1 6 6 6 4 3 4 4 5 6 2 9 8 16 25 32 30 27 26 26 25 23 19 19 14 12 13 15 16 17 17 17 16
3 4 4 4 6 8 11 8 8 7 7 5 3 4 4 3 5 4 3 3 5 2 6 7 11 20 31 30 26 26 25 25 23 21 20 18 15 11 12 13 16 18 19 19
5 2 5 6 11 7 8 7 12 8 5 5 1 3 6 3 3 4 2 2 0 2 6 8 11 23 30 28 27 24 23 23 23 23 21 20 18 16 12 11 11 12 15 18
2 1 2 3 2 3 5 7 7 4 2 0 6 6 5 5 7 4 2 0 3 5 3 9 14 23 22 20 23 20 19 19 20 21 19 18 18 16 13 13 10 8 11 12
2 4 2 1 4 5 3 6 3 1 1 5 4 4 7 2 5 7 7 4 6 5 6 8 8 12 13 13 14 13 14 12 8 9 11 12 13 14 14 12 8 5 6 6
3 6 2 2 4 7 6 6 5 6 5 4 6 6 4 2 4 7 6 6 6 7 7 8 10 16 15 13 12 10 9 7 5 5 4 4 6 4 4 3 4 4 5 7
5 6 2 1 2 3 5 3 4 5 2 3 2 3 4 4 5 5 7 7 7 7 7 8 13 19 18 17 14 12 11 9 8 7 6 6 5 3 1 2 3 4 4 6
1 2 1 1 2 3 2 3 2 3 3 3 3 3 4 8 8 6 7 8 6 6 7 7 10 15 14 13 13 11 9 6 4 1 1 2 2 2 2 2 4 5 6 8
1 1 5 1 2 5 1 0 4 4 4 4 2 6 5 12 12 11 9 8 8 7 7 7 9 11 11 11 8 6 4 2 1 3 4 3 3 4 3 4 5 7 10 14
1 3 1 5 4 1 3 4 4 4 3 1 4 5 4 8 12 11 8 8 7 7 7 6 8 8 8 8 6 4 2 1 4 5 4 1 2 4 7 9 9 11 15 17
2 2 2 6 5 3 2 3 4 5 3 3 4 5 4 5 7 7 10 8 8 8 7 6 9 10 10 10 9 6 5 4 1 3 3 3 4 7 7 7 11 14 14 17
3 1 4 5 5 3 2 3 3 5 3 3 5 3 2 5 9 7 7 9 11 10 8 7 6 8 9 8 7 6 4 1 1 2 3 4 4 5 9 12 12 13 15 18
2 2 2 4 3 2 2 3 6 5 4 5 3 7 7 9 11 15 11 9 8 7 8 7 6 6 7 7 6 4 3 3 2 1 3 6 7 9 10 10 12 16 18 19
1 3 2 3 3 2 3 3 3 3 3 2 4 4 2 4 6 6 9 11 8 7 7 6 6 8 6 4 2 1 1 1 2 6 8 8 10 12 10 13 18 19 20 21
2 2 2 3 4 4 6 5 6 4 4 6 6 7 3 2 6 8 9 8 8 8 7 6 6 6 4 1 2 3 3 3 5 9 11 11 13 10 14 17 19 20 22 23
3 2 2 2 3 2 4 1 1 4 3 4 5 6 5 5 4 6 2 7 9 8 7 6 7 4 1 1 3 5 5 6 7 9 11 13 10 13 16 18 20 23 22 23
2 3 2 2 2 5 2 2 3 4 4 6 8 6 5 6 4 6 5 5 7 7 8 9 5 3 2 4 5 4 7 9 10 12 13 11 12 14 17 20 22 21 22 16
3 5 3 2 2 5 3 2 0 2 4 6 7 8 9 6 3 4 5 6 7 12 10 6 4 3 3 5 6 7 10 12 16 16 14 12 12 14 18 19 20 20 14 24
1 2 4 2 2 7 6 3 1 4 7 5 6 6 8 5 3 5 8 6 13 11 8 5 3 2 4 5 7 9 9 12 15 14 12 11 12 16 17 18 17 15 24 26
6 5 3 2 1 7 5 3 6 5 1 3 4 4 5 7 9 9 8 8 10 9 6 3 2 5 7 8 9 10 12 13 15 12 11 11 14 16 17 14 14 20 26 23
1 6 4 8 6 5 7 4 4 4 4 2 5 4 9 10 7 7 6 7 7 7 5 4 5 7 8 10 10 11 12 12 12 10 11 12 14 15 13 14 18 24 24 21
2 3 3 3 4 7 6 3 3 5 5 5 5 8 8 8 8 7 7 6 5 4 2 2 4 8 10 10 8 11 12 11 10 11 11 12 14 14 15 15 21 23 21 18
4 4 3 5 7 6 6 6 6 4 6 8 7 6 7 9 7 6 5 5 4 1 1 4 6 7 9 10 10 12 12 11 10 10 11 13 13 13 13 18 21 19 18 17
5 7 5 6 7 5 4 5 8 8 7 9 8 6 5 8 8 6 5 5 2 2 4 5 4 8 9 11 12 10 11 10 9 10 12 12 11 15 16 20 23 20 16 19
Wind_Direction
189 147 208 197 192 154 147 153 173 225 179 122 196 208 235 239 224 246 242 196 210 207 136 170 163 166 162 158 158 160 159 162 165 164 170 180 188 191 199 205 211 218 224 226
37 204 214 184 185 156 170 166 176 74 165 126 180 240 245 239 218 219 205 175 191 126 126 153 165 164 164 162 157 162 169 173 177 180 181 186 195 204 213 214 216 228 240 243
167 208 192 158 180 214 226 174 177 170 134 328 115 298 242 230 154 126 75 117 96 145 167 163 164 166 167 166 166 167 176 179 178 182 184 198 211 225 227 226 225 232 240 244
256 274 209 193 232 196 219 189 189 141 129 198 187 248 284 209 130 95 82 64 82 73 164 153 165 162 169 172 173 178 182 184 189 191 197 207 209 206 224 232 238 243 245 249
224 287 195 216 228 176 237 183 167 184 138 125 166 101 261 107 146 183 185 93 95 236 160 166 166 167 173 174 181 185 188 195 196 199 206 210 213 224 227 233 247 253 249 247
83 224 178 263 89 145 179 91 51 53 84 90 209 155 273 192 193 180 215 42 352 331 249 153 163 162 163 173 186 192 195 195 202 209 215 221 226 236 237 238 242 243 245 249
357 342 281 305 89 32 105 85 62 286 242 215 155 152 236 204 169 164 168 90 27 32 97 116 123 126 140 149 153 151 157 150 170 201 221 234 244 250 254 254 249 235 223 223
85 327 199 196 195 186 192 164 160 173 186 221 110 215 256 354 128 124 112 108 70 57 68 82 92 110 118 124 130 136 137 128 147 161 165 208 232 237 225 239 250 255 269 282
196 214 261 150 223 122 186 165 172 102 73 93 197 331 354 75 97 119 123 106 93 79 81 92 100 111 110 106 104 110 113 103 92 96 105 101 98 109 156 238 260 292 312 314
235 340 9 251 144 338 145 183 78 10 152 223 282 238 227 192 180 169 157 143 127 114 103 104 109 118 117 111 106 103 102 104 102 83 51 98 91 67 52 328 309 313 316 313
321 85 296 354 137 183 66 98 45 101 141 167 188 261 215 191 179 178 182 166 155 146 138 143 139 128 123 120 113 104 95 69 308 280 266 260 295 322 339 337 323 315 313 314
295 129 339 253 299 269 209 191 131 126 233 114 147 272 353 181 174 167 172 169 158 153 166 151 129 123 117 113 115 99 67 314 279 259 247 252 321 317 308 304 305 310 314 317
330 3 20 346 351 346 235 201 124 111 88 198 135 261 10 143 128 166 164 164 162 167 156 141 137 133 126 118 107 89 71 42 357 215 228 262 291 299 297 307 314 317 320 318
21 24 171 207 219 167 248 202 148 116 117 183 220 233 289 150 156 174 176 167 173 173 158 150 140 145 137 121 103 88 68 43 185 215 237 284 304 316 320 319 318 317 317 316
85 245 240 247 252 211 233 216 181 172 183 163 235 186 211 199 183 191 177 174 177 174 157 156 154 148 127 112 99 81 74 91 88 38 336 319 316 315 315 312 316 319 317 317
148 259 284 273 309 0 299 281 213 207 196 168 188 231 241 185 97 146 178 187 186 160 145 146 136 128 115 102 103 130 174 141 342 328 322 317 311 313 312 320 322 322 319 317
189 155 84 267 335 3 311 234 195 201 194 160 191 224 158 74 185 187 192 184 165 147 137 131 124 113 98 64 244 250 239 263 301 320 318 313 314 309 318 323 322 321 320 316
173 115 95 212 10 255 254 311 2 221 270 126 103 148 163 149 78 39 98 152 130 124 131 122 117 118 118 340 304 281 254 270 295 306 309 310 299 307 318 321 323 322 321 319
63 116 87 127 208 291 275 226 187 177 238 197 155 153 138 130 77 12 42 77 123 129 132 138 138 113 51 3 342 305 277 286 288 292 298 292 297 308 320 323 323 321 320 319
74 67 116 103 131 225 241 213 90 78 291 200 172 171 157 148 140 231 145 122 119 130 135 128 112 73 14 353 334 311 303 304 295 295 294 289 300 315 321 323 320 319 319 321
93 20 166 161 233 287 244 199 52 95 239 183 173 154 156 183 188 148 133 119 134 139 145 137 113 32 336 324 313 310 315 310 311 295 284 291 309 322 327 323 319 322 326 323
171 149 196 92 124 285 164 90 169 220 30 103 101 138 122 115 115 122 132 137 146 155 153 162 201 276 287 288 290 295 303 320 320 305 296 307 321 328 327 323 321 326 329 323
228 184 181 179 214 237 215 199 204 155 138 134 118 117 131 129 134 138 133 151 169 175 187 223 263 303 307 307 304 302 316 324 322 309 307 316 326 331 330 322 323 331 330 324
239 160 197 73 258 235 235 226 174 168 146 134 128 136 139 137 142 137 146 164 160 176 225 300 303 315 319 330 321 310 318 319 311 307 314 326 332 333 330 324 327 328 327 316
197 125 190 265 283 294 255 204 175 135 115 109 106 132 140 132 136 142 158 155 154 175 250 313 323 324 326 328 324 326 323 317 310 312 324 336 338 334 331 333 334 324 317 311
187 185 171 230 214 179 232 187 162 148 148 143 128 114 115 129 145 149 147 152 180 260 316 323 325 313 328 334 334 344 336 320 312 322 335 342 337 335 329 334 332 333 321 316